GalileoSat-19

operational
NORAD ID: 43055 Int'l Des: 2017-079 Owner: GSAEU Country: I-EU Constellation: Galileo
MEOCIRCULAR

About GalileoSat-19

Description loading...

Live Position

Loading 3D Globe...

Upcoming Passes

Altitude History

Altitude vs Time

uPlot chart will show altitude changes over time

Two-Line Element Set

1 43055U 17079A 25296.62289122 -.00000004 00000-0 00000-0 0 9992
2 43055 55.1496 228.0166 0002240 290.2528 69.7266 1.70473846 48952
Epoch: Oct 23, 2025 • Age: 60 hours

Current Status

Altitude 23236.4 km
Velocity 3.67 km/s
Sub-Earth Point 53.96°N, 107.14°W
Launch Date Dec 12, 2017
Age 7.8 years
Type navigation

Technical Details

Classification Payload
Mass 715.00 kg
Dry Mass 700.00 kg
Total Mass 715.00 kg
Length 2.70 m
Diameter 1.60 m
Span 14.70 m
Shape Box+2 pan
Manufacturer OHB
Bus Type GalileoSat
Phase Status In Orbit
Owner/State GSAEU/I-EU

Large Constellations

Loading constellations...